DW3648 Weather Reports


Display with metric or nautical units.
time (UTC)temp
F
wind
direction
speed
MPH
gust
MPH
rain 1hr
in
rain 24hr
in
rain mn
in
humidity
%
barometer
mb
20260507031503 53 96 0.0 5.0 0.00 0.00 0.00 69 1004.1
20260507030101 53 96 0.0 3.0 0.00 0.00 0.00 69 1004.1
20260507024605 53 87 1.0 3.0 0.00 0.00 0.00 68 1003.9
20260507023057 54 86 0.0 2.0 0.00 0.00 0.00 67 1003.9
20260507021555 54 86 1.0 6.0 0.00 0.00 0.00 66 1003.8
20260507020050 55 106 2.0 5.0 0.00 0.00 0.00 65 1003.8
20260507014554 56 346 0.0 2.0 0.00 0.00 0.00 62 1004.1
20260507013048 57 346 0.0 0.0 0.00 0.00 0.00 59 1004.1
20260507011542 57 346 0.0 2.0 0.00 0.00 0.00 59 1004.2
20260507010037 58 346 0.0 1.0 0.00 0.00 0.00 58 1004.3
20260507004539 58 346 0.0 4.0 0.00 0.00 0.00 58 1004.3
20260507003035 58 346 0.0 2.0 0.00 0.00 0.00 57 1004.4
20260507001540 58 346 1.0 4.0 0.00 0.00 0.00 57 1004.4
20260507000032 59 37 1.0 5.0 0.00 0.00 0.00 57 1004.7
20260506234531 59 346 0.0 4.0 0.00 0.00 0.00 58 1004.7
20260506233030 59 321 0.0 2.0 0.00 0.00 0.00 58 1004.6
20260506231530 59 38 0.0 4.0 0.00 0.00 0.00 58 1004.7
20260506230028 59 143 0.0 0.0 0.00 0.00 0.00 59 1004.6
20260506224528 60 143 0.0 2.0 0.00 0.00 0.00 57 1004.6
20260506223027 60 152 0.0 4.0 0.00 0.00 0.00 57 1004.7
20260506221526 60 162 2.0 7.0 0.00 0.00 0.00 56 1004.7
20260506220034 60 200 1.0 7.0 0.00 0.00 0.00 56 1004.8
20260506214527 60 208 1.0 5.0 0.00 0.00 0.00 58 1004.8
20260506213028 61 194 1.0 5.0 0.00 0.00 0.00 55 1004.7
20260506211522 61 190 0.0 5.0 0.00 0.00 0.00 48 1004.6
20260506210023 62 184 1.0 10.0 0.00 0.00 0.00 44 1004.5
20260506204553 62 198 1.0 4.0 0.00 0.00 0.00 44 1004.1
20260506203052 62 136 0.0 0.0 0.00 0.00 0.00 45 1003.9
20260506201521 62 101 0.0 5.0 0.00 0.00 0.00 45 1003.7
20260506200022 63 181 0.0 5.0 0.00 0.00 0.00 46 1003.6
20260506194517 64 113 2.0 7.0 0.00 0.00 0.00 47 1003.2
20260506193016 65 221 2.0 7.0 0.00 0.00 0.00 47 1003.0
20260506191516 65 181 1.0 6.0 0.00 0.00 0.00 46 1002.8
20260506190023 66 222 3.0 6.0 0.00 0.00 0.00 45 1002.8
20260506184549 66 196 2.0 6.0 0.00 0.00 0.00 45 1002.7
20260506183051 67 96 3.0 8.0 0.00 0.00 0.00 45 1002.7
20260506181553 67 159 1.0 9.0 0.00 0.00 0.00 42 1002.8
20260506180100 68 152 2.0 7.0 0.00 0.00 0.00 41 1002.7
20260506174540 68 190 0.0 8.0 0.00 0.00 0.00 41 1002.7
20260506173045 69 242 4.0 7.0 0.00 0.00 0.00 40 1002.6
20260506171537 69 244 1.0 11.0 0.00 0.00 0.00 40 1002.6
20260506170037 71 221 3.0 9.0 0.00 0.00 0.00 38 1002.6
20260506164536 72 194 1.0 9.0 0.00 0.00 0.00 37 1002.5
20260506163038 72 173 2.0 8.0 0.00 0.00 0.00 36 1002.5
20260506161536 72 125 2.0 8.0 0.00 0.00 0.00 36 1002.5
20260506160036 72 240 0.0 8.0 0.00 0.00 0.00 37 1002.6
20260506154531 72 171 3.0 9.0 0.00 0.00 0.00 35 1002.7
20260506153031 72 182 5.0 11.0 0.00 0.00 0.00 36 1002.7
20260506151600 73 192 4.0 10.0 0.00 0.00 0.00 35 1002.9
20260506150100 74 202 5.0 11.0 0.00 0.00 0.00 32 1003.1
20260506144605 73 108 0.0 15.0 0.00 0.00 0.00 33 1003.3
20260506143054 73 216 3.0 7.0 0.00 0.00 0.00 34 1003.5
20260506141552 72 263 3.0 10.0 0.00 0.00 0.00 35 1003.6
20260506140051 72 5 0.0 8.0 0.00 0.00 0.00 35 1003.7
20260506134548 72 211 1.0 8.0 0.00 0.00 0.00 34 1003.7
20260506133046 71 198 2.0 11.0 0.00 0.00 0.00 36 1003.8
20260506131544 71 273 2.0 10.0 0.00 0.00 0.00 36 1003.9
20260506130043 71 275 1.0 8.0 0.00 0.00 0.00 34 1003.9
20260506124540 71 355 4.0 8.0 0.00 0.00 0.00 34 1004.0
20260506123039 71 207 1.0 7.0 0.00 0.00 0.00 35 1004.2
20260506121539 71 230 2.0 9.0 0.00 0.00 0.00 35 1004.4
20260506120034 70 178 1.0 8.0 0.00 0.00 0.00 36 1004.5
20260506114505 70 188 2.0 7.0 0.00 0.00 0.00 36 1004.6
20260506113003 70 93 2.0 6.0 0.00 0.00 0.00 36 1004.7
20260506111559 69 186 0.0 6.0 0.00 0.00 0.00 37 1004.9
20260506110053 68 166 0.0 6.0 0.00 0.00 0.00 37 1005.1
20260506104555 66 169 1.0 6.0 0.00 0.00 0.00 38 1005.5
20260506103048 66 261 2.0 8.0 0.00 0.00 0.00 38 1005.6
20260506101515 65 281 2.0 6.0 0.00 0.00 0.00 41 1005.8
20260506100013 65 296 2.0 4.0 0.00 0.00 0.00 43 1005.8
20260506094507 64 259 1.0 5.0 0.00 0.00 0.00 45 1005.9
20260506093002 62 267 1.0 6.0 0.00 0.00 0.00 47 1005.8
20260506091604 61 279 0.0 4.0 0.00 0.00 0.00 49 1006.0
20260506090100 61 190 1.0 5.0 0.00 0.00 0.00 50 1006.1
20260506084557 60 271 0.0 3.0 0.00 0.00 0.00 51 1006.1
20260506083057 60 199 1.0 3.0 0.00 0.00 0.00 53 1006.1
20260506081547 59 213 0.0 3.0 0.00 0.00 0.00 55 1006.1
20260506073012 55 334 0.0 3.0 0.00 0.00 0.00 57 1006.2
20260506071511 55 113 0.0 0.0 0.00 0.00 0.00 58 1006.2
20260506061503 47 103 2.0 5.0 0.00 0.00 0.00 72 1006.2
20260506044533 47 96 4.0 7.0 0.00 0.00 0.00 71 1006.0
20260506043022 47 90 2.0 6.0 0.00 0.00 0.00 70 1006.0
20260506041517 47 72 2.0 5.0 0.00 0.00 0.00 70 1006.1
20260506040014 48 126 0.0 4.0 0.00 0.00 0.00 69 1006.1
20260506034513 48 89 4.0 6.0 0.00 0.00 0.00 68 1006.2
20260506033008 49 101 5.0 8.0 0.00 0.00 0.00 66 1006.2